This is the latest recevied weather packets stored in our database for station/object K3BAY-1. If no packets are shown the sender has not sent any weather packets the latest 10 day(s).
| Time | Temp. | Humidity | Pressure | Rain* | Wind** | Luminosity | Snow |
|---|---|---|---|---|---|---|---|
| 1777907002 | 18.89° C | 47% | 1014.6 hPa | 0 mm | - | 49 W/m² | - |
| 1777906700 | 19.44° C | 46% | 1014.2 hPa | 0 mm | - | 49 W/m² | - |
| 1777906396 | 20° C | 47% | 1014.2 hPa | 0 mm | - | 48 W/m² | - |
| 1777906093 | 20.56° C | 49% | 1014.2 hPa | 0 mm | - | 47 W/m² | - |
| 1777905487 | 20.56° C | 41% | 1014.2 hPa | 0 mm | - | 46 W/m² | - |
| 1777905184 | 20° C | 44% | 1014.2 hPa | 0 mm | - | 46 W/m² | - |
| 1777904881 | 19.44° C | 42% | 1014.2 hPa | 0 mm | - | 45 W/m² | - |
| 1777904578 | 19.44° C | 43% | 1014.2 hPa | 0 mm | - | 43 W/m² | - |
| 1777904275 | 18.89° C | 46% | 1014.2 hPa | 0 mm | - | 46 W/m² | - |
| 1777903973 | 18.89° C | 47% | 1014.2 hPa | 0 mm | - | 44 W/m² | - |
| 1777903669 | 18.33° C | 45% | 1014.2 hPa | 0 mm | - | 43 W/m² | - |
| 1777903365 | 18.89° C | 46% | 1014.2 hPa | 0 mm | - | 44 W/m² | - |
| 1777902758 | 18.33° C | 47% | 1014.2 hPa | 0 mm | - | 104 W/m² | - |
| 1777902456 | 18.33° C | 46% | 1014.2 hPa | 0 mm | - | 44 W/m² | - |
| 1777901851 | 17.78° C | 46% | 1014.2 hPa | 0 mm | - | 42 W/m² | - |
| 1777901547 | 17.78° C | 49% | 1014.2 hPa | 0 mm | - | 42 W/m² | - |
| 1777901245 | 17.22° C | 49% | 1014.2 hPa | 0 mm | - | 42 W/m² | - |
| 1777900942 | 16.67° C | 50% | 1014.2 hPa | 0 mm | - | 42 W/m² | - |
| 1777900639 | 16.67° C | 50% | 1014.6 hPa | 0 mm | - | 42 W/m² | - |
| 1777900337 | 16.67° C | 51% | 1014.6 hPa | 0 mm | - | 42 W/m² | - |
| 1777900034 | 16.11° C | 52% | 1014.2 hPa | 0 mm | - | 42 W/m² | - |
| 1777899729 | 15.56° C | 51% | 1014.2 hPa | 0 mm | - | 41 W/m² | - |
| 1777899427 | 15° C | 53% | 1014.2 hPa | 0 mm | - | 42 W/m² | - |
| 1777898822 | 15.56° C | 55% | 1014.6 hPa | 0 mm | - | 41 W/m² | - |
| 1777898217 | 15° C | 56% | 1014.9 hPa | 0 mm | - | 41 W/m² | - |
* Rain latest hour (hover to see other rain measurements)
** Current wind speed in m/s (hover to see current wind gust speed)